Content
SEND FEEDBACK

Daily
Averages
Monthly
Summary
United States of America

BOILING SPRING LAKES, NORTH CAROLINA


Home > North America > United States > North Carolina
Elevation: 20 feet     Latitude: 34 00N     Longitude: 078 01W

WEATHER
 
SELECT A DAY
Number of Records: 136,557;   Date Range: 8/21/01 - 8/12/14
 
SHARE

PRINT THIS DATA

[ ← Previous Day ]
WEATHER ALMANAC - MARCH 6, 2014
[ Next Day → ]
[ °C ]   °F
Weather ElementAverageHighLow
Temperature40.1 °F47.7 °F (11:55 pm)34.9 °F (5:15 am)
Dewpoint36.5 °F46.4 °F (11:55 pm)29.8 °F (7:15 am)
Humidity87.4 %96 % (9:15 pm)74 % (10:00 am)
Barometer30.11 in30.24 in (1:15 am)29.79 in (11:55 pm)
Wind Speed14.1 mph25.3 mph (10:35 pm)
Wind Gust39.1 mph (11:55 pm)
Weather ElementAverage
Visibility7.5 mi
Wind DirectionNNE (27.9 °)

Weather ElementTotal
Precipitation2.24 in
Heating Degree Days23.7 (Base 65)
Averaged from 71 records on March 6, 2014
WEATHER CONDITIONS BREAKOUT
WIND DIRECTION BREAKOUT
WEATHER BY HOUR - MARCH 6, 2014
[ °C ]   °F
Local TimeTemperatureDewpointHumidityBarometerVisibilityWind DirectionWind SpeedGust SpeedPrecipitationEventsConditions
12:35 AM39.2 °F34.2 °F82 %30.22 in10.0 miNNE (20°)8.1 mphOvercast
12:55 AM39.2 °F33.3 °F79 %30.23 in10.0 miNNE (30°)9.2 mph16.1 mphOvercast
1:15 AM39.2 °F33.3 °F79 %30.24 in10.0 miNNE (30°)8.1 mphOvercast
1:35 AM39.2 °F33.8 °F81 %30.23 in10.0 miNNE (30°)5.8 mphOvercast
1:55 AM39.2 °F33.6 °F80 %30.22 in10.0 miNNE (20°)6.9 mphOvercast
2:15 AM38.5 °F33.8 °F83 %30.21 in10.0 miNNE (20°)8.1 mphOvercast
2:35 AM38.1 °F33.3 °F83 %30.21 in10.0 miNNE (20°)6.9 mphOvercast
2:55 AM37.4 °F32.7 °F83 %30.19 in10.0 miNNE (20°)10.4 mph16.1 mphScattered Clouds
3:15 AM36.5 °F32.0 °F84 %30.20 in10.0 miNNE (20°)9.2 mph18.4 mphClear
3:35 AM36.1 °F31.6 °F84 %30.19 in10.0 miNNE (30°)10.4 mph16.1 mphClear
3:55 AM35.6 °F31.1 °F84 %30.19 in10.0 miNNE (20°)9.2 mphClear
4:15 AM35.6 °F30.7 °F82 %30.19 in10.0 miNNE (20°)10.4 mph18.4 mphClear
4:35 AM35.1 °F30.2 °F82 %30.19 in10.0 miNNE (30°)8.1 mphClear
4:55 AM35.1 °F30.2 °F82 %30.21 in10.0 miNNE (30°)8.1 mphMostly Cloudy
5:15 AM34.9 °F30.2 °F83 %30.21 in10.0 miNNE (20°)10.4 mphMostly Cloudy
5:35 AM34.9 °F30.2 °F83 %30.22 in10.0 miNNE (30°)9.2 mphScattered Clouds
5:55 AM34.9 °F30.0 °F82 %30.22 in10.0 miNNE (30°)8.1 mphMostly Cloudy
6:15 AM34.9 °F30.0 °F82 %30.22 in10.0 miNNE (30°)8.1 mph16.1 mphOvercast
6:35 AM35.1 °F30.0 °F82 %30.23 in10.0 miNNE (30°)8.1 mph16.1 mphOvercast
6:55 AM35.1 °F30.0 °F82 %30.23 in10.0 miNNE (30°)11.5 mph17.3 mphOvercast
7:15 AM35.2 °F29.8 °F81 %30.21 in10.0 miNNE (30°)15.0 mph19.6 mphOvercast
7:35 AM35.6 °F29.8 °F80 %30.23 in10.0 miNNE (30°)13.8 mph21.9 mphOvercast
7:55 AM35.6 °F29.8 °F80 %30.23 in10.0 miNNE (30°)12.7 mph21.9 mphOvercast
8:15 AM36.9 °F30.6 °F78 %30.23 in10.0 miNNE (30°)16.1 mph19.6 mphOvercast
8:35 AM37.4 °F31.1 °F78 %30.22 in10.0 miNNE (30°)17.3 mph21.9 mphOvercast
8:55 AM38.3 °F31.5 °F76 %30.23 in10.0 miNNE (30°)15.0 mph24.2 mphOvercast
9:15 AM39.2 °F32.0 °F75 %30.24 in10.0 miNNE (30°)11.5 mph23.0 mphOvercast
9:35 AM39.2 °F32.0 °F75 %30.24 in10.0 miNNE (30°)9.2 mph25.3 mphOvercast
10:00 AM39.6 °F32.0 °F74 %30.23 in10.0 miNE (40°)11.5 mph18.4 mphOvercast
10:15 AM40.5 °F32.7 °F74 %30.21 in10.0 miNE (40°)13.8 mph23.0 mphOvercast
10:35 AM40.6 °F32.9 °F74 %30.21 in10.0 miNNE (20°)13.8 mph23.0 mphOvercast
10:55 AM41.0 °F33.3 °F74 %30.22 in10.0 miNNE (20°)12.7 mph23.0 mphOvercast
11:15 AM40.6 °F34.0 °F77 %30.22 in10.0 miNorth (10°)16.1 mph21.9 mphOvercast
11:35 AM39.7 °F34.2 °F80 %30.22 in10.0 miNNE (20°)13.8 mph23.0 mphOvercast
11:55 AM39.2 °F35.2 °F86 %30.21 in10.0 miNNE (20°)11.5 mph20.7 mphLight Drizzle
12:15 PM39.2 °F36.5 °F90 %30.20 in5.0 miNorth (10°)15.0 mph20.7 mphRainRain
12:35 PM39.2 °F37.0 °F92 %30.19 in5.0 miNNE (20°)13.8 mph0.02 inRainLight Rain
12:55 PM39.2 °F37.4 °F93 %30.18 in5.0 miNNE (20°)12.7 mph21.9 mph0.03 inRainLight Rain
1:15 PM39.2 °F37.6 °F94 %30.15 in5.0 miNNE (30°)11.5 mph20.7 mph0.01 inRainLight Rain
1:35 PM39.4 °F37.9 °F95 %30.14 in5.0 miNNE (20°)15.0 mph21.9 mph0.03 inRainLight Rain
1:55 PM39.7 °F38.3 °F95 %30.13 in5.0 miNNE (30°)12.7 mph23.0 mph0.05 inRainRain
2:15 PM40.5 °F39.2 °F95 %30.12 in4.0 miNNE (30°)15.0 mph23.0 mph0.03 inRainRain
2:40 PM41.0 °F39.6 °F95 %30.10 in5.0 miNNE (30°)15.0 mph21.9 mph0.06 inRainLight Rain
2:55 PM41.2 °F39.7 °F95 %30.08 in7.0 miNNE (30°)18.4 mph25.3 mph0.08 inRainRain
3:15 PM41.9 °F40.5 °F95 %30.07 in2.5 miNNE (30°)16.1 mph24.2 mph0.06 inRainRain
3:35 PM42.8 °F41.2 °F94 %30.07 in5.0 miNE (40°)18.4 mph27.6 mph0.09 inRainLight Rain
3:55 PM42.8 °F41.2 °F94 %30.06 in5.0 miNNE (30°)13.8 mph26.5 mph0.12 inRainRain
4:15 PM43.0 °F41.4 °F94 %30.06 in5.0 miNNE (30°)17.3 mph26.5 mph0.03 inRainRain
4:35 PM43.2 °F41.5 °F94 %30.06 in5.0 miNNE (30°)18.4 mph27.6 mph0.06 inRainRain
4:55 PM43.5 °F41.7 °F93 %30.06 in3.0 miNE (40°)16.1 mph27.6 mph0.11 inRainRain
5:15 PM43.0 °F41.5 °F95 %30.05 in3.0 miNNE (30°)15.0 mph28.8 mph0.04 inRainRain
5:35 PM43.2 °F41.9 °F95 %30.04 in4.0 miNNE (30°)13.8 mph25.3 mph0.07 inRainRain
5:55 PM43.2 °F41.9 °F95 %30.03 in5.0 miNNE (30°)16.1 mph25.3 mph0.12 inRainRain
6:20 PM43.0 °F41.5 °F95 %30.00 in7.0 miNNE (30°)19.6 mph32.2 mph0.03 inRainLight Rain
6:35 PM43.0 °F41.7 °F95 %29.98 in7.0 miNE (40°)19.6 mph25.3 mph0.05 inRainLight Rain
6:55 PM43.2 °F41.9 °F95 %29.98 in7.0 miNNE (30°)17.3 mph28.8 mph0.07 inRainLight Rain
7:15 PM43.3 °F41.9 °F95 %29.98 in7.0 miNNE (30°)16.1 mph27.6 mph0.02 inRainLight Rain
7:35 PM43.0 °F41.7 °F95 %29.98 in5.0 miNNE (30°)17.3 mph29.9 mph0.07 inRainRain
7:55 PM42.8 °F41.4 °F95 %29.97 in5.0 miNNE (30°)17.3 mph28.8 mph0.12 inRainRain
8:15 PM42.4 °F41.0 °F95 %29.96 in5.0 miNNE (30°)19.6 mph33.4 mph0.03 inRainRain
8:35 PM42.4 °F41.0 °F95 %29.95 in7.0 miNNE (30°)19.6 mph29.9 mph0.05 inRainLight Rain
8:55 PM42.1 °F40.6 °F95 %29.94 in5.0 miNNE (30°)18.4 mph29.9 mph0.07 inRainLight Rain
9:15 PM42.1 °F41.0 °F96 %29.93 in7.0 miNNE (30°)18.4 mph31.1 mph0.01 inRainLight Rain
9:35 PM42.4 °F41.0 °F95 %29.90 in7.0 miNNE (30°)20.7 mph31.1 mph0.02 inRainLight Rain
9:55 PM43.0 °F41.9 °F96 %29.90 in7.0 miNNE (30°)19.6 mph27.6 mph0.04 inRainLight Rain
10:15 PM44.2 °F42.8 °F95 %29.88 in7.0 miNNE (30°)19.6 mph32.2 mph0.02 inRainLight Rain
10:35 PM45.0 °F43.7 °F95 %29.86 in4.0 miNNE (30°)25.3 mph36.8 mph0.06 inRainRain
10:55 PM45.5 °F44.1 °F95 %29.83 in5.0 miNNE (30°)18.4 mph34.5 mph0.10 inRainLight Rain
11:15 PM46.4 °F44.8 °F94 %29.83 in4.0 miNNE (30°)23.0 mph34.5 mph0.05 inRainRain
11:35 PM46.9 °F45.5 °F95 %29.81 in3.0 miNNE (30°)20.7 mph31.1 mph0.15 inRainRain
11:55 PM47.7 °F46.4 °F95 %29.79 in3.0 miNNE (30°)20.7 mph39.1 mph0.27 inRainHeavy Rain
Hourly data recorded from KSUT, located miles away from Boiling Spring Lakes, North Carolina







STORIES FROM OUR PARTNERS